GW2021 Weather Reports


Display with metric or nautical units.
time (UTC)temp
F
wind
direction
speed
MPH
gust
MPH
rain 1hr
in
rain 24hr
in
rain mn
in
humidity
%
barometer
mb
20260507060536 52 157 0.0 0.0 0.00 0.00 0.00 86 1011.4
20260507055634 52 157 0.0 0.0 0.00 0.00 0.00 85 1011.4
20260507054635 53 157 0.0 0.0 0.00 0.00 0.00 85 1011.5
20260507053634 52 157 0.0 0.0 0.00 0.00 0.00 84 1011.2
20260507052635 52 157 0.0 0.0 0.00 0.00 0.00 83 1011.0
20260507051733 52 157 0.0 0.0 0.00 0.00 0.00 83 1011.5
20260507045735 54 157 0.0 0.0 0.00 0.00 0.00 79 1011.7
20260507044736 54 157 0.0 0.0 0.00 0.00 0.00 78 1011.7
20260507043835 55 157 0.0 0.0 0.00 0.00 0.00 81 1011.4
20260507042835 55 157 0.0 0.0 0.00 0.00 0.00 81 1011.2
20260507041837 55 157 0.0 0.0 0.00 0.00 0.00 80 1011.3
20260507040935 55 157 0.0 0.0 0.00 0.00 0.00 78 1011.2
20260507040027 56 157 0.0 0.0 0.00 0.00 0.00 76 1011.0
20260507034023 57 157 0.0 0.0 0.00 0.00 0.00 69 1010.9
20260507033120 57 157 0.0 0.0 0.00 0.00 0.00 69 1011.0
20260507032122 57 157 0.0 0.0 0.00 0.00 0.00 70 1011.2
20260507031220 57 157 0.0 0.0 0.00 0.00 0.00 70 1011.0
20260507030222 57 157 0.0 0.0 0.00 0.00 0.00 72 1011.0
20260507025221 57 157 0.0 0.0 0.00 0.00 0.00 72 1010.5
20260507024320 58 157 0.0 0.0 0.00 0.00 0.00 73 1010.5
20260507023322 58 157 0.0 0.0 0.00 0.00 0.00 73 1011.0
20260507022322 59 157 0.0 0.0 0.00 0.00 0.00 74 1010.6
20260507020320 60 157 0.0 0.0 0.00 0.00 0.00 75 1010.5
20260507015321 60 157 0.0 0.0 0.00 0.00 0.00 76 1010.6
20260507014323 60 157 0.0 0.0 0.00 0.00 0.00 79 1010.5
20260507013322 60 157 0.0 0.0 0.00 0.00 0.00 77 1010.5
20260507012321 60 157 0.0 0.0 0.00 0.00 0.00 77 1010.5
20260507011322 61 157 0.0 0.0 0.00 0.00 0.00 78 1010.8
20260507010322 61 157 0.0 0.0 0.00 0.00 0.00 79 1010.7
20260507004420 62 157 0.0 0.0 0.00 0.00 0.00 79 1010.4
20260507002421 62 157 0.0 0.0 0.00 0.00 0.00 80 1009.9
20260507001422 63 157 0.0 0.0 0.00 0.00 0.00 82 1009.9
20260507000520 63 157 0.0 0.0 0.00 0.00 0.00 82 1009.5
20260506235522 63 157 0.0 0.0 0.00 0.00 0.00 83 1009.0
20260506234620 63 157 0.0 0.0 0.00 0.00 0.00 83 1008.8
20260506233621 63 157 0.0 0.0 0.00 0.00 0.00 83 1008.9
20260506232621 64 157 0.0 0.0 0.00 0.00 0.00 82 1008.6
20260506231720 64 157 0.0 0.0 0.00 0.00 0.00 82 1008.5
20260506230723 64 157 0.0 0.0 0.00 0.00 0.00 82 1008.5
20260506225721 65 157 0.0 0.0 0.00 0.00 0.00 81 1008.6
20260506224721 65 157 0.0 0.0 0.00 0.00 0.00 80 1008.3
20260506223721 65 157 0.0 0.0 0.00 0.00 0.00 80 1008.3
20260506222722 65 157 0.0 0.0 0.00 0.00 0.00 80 1008.2
20260506221722 65 157 0.0 0.0 0.00 0.00 0.00 79 1008.3
20260506220821 65 157 0.0 0.0 0.00 0.00 0.00 78 1008.2
20260506214920 66 157 0.0 0.0 0.00 0.00 0.00 79 1007.8
20260506213921 66 157 0.0 0.0 0.00 0.00 0.00 79 1007.8
20260506212922 66 157 0.0 0.0 0.00 0.00 0.00 78 1007.5
20260506211922 66 157 0.0 0.0 0.00 0.00 0.00 77 1007.5
20260506210922 67 157 0.0 0.0 0.00 0.00 0.00 76 1007.6
20260506210021 67 157 0.0 0.0 0.00 0.00 0.00 76 1007.3
20260506205021 67 157 0.0 0.0 0.00 0.00 0.00 77 1007.2
20260506204120 67 157 0.0 0.0 0.00 0.00 0.00 78 1007.3
20260506202123 66 157 0.0 0.0 0.00 0.00 0.00 80 1007.3
20260506201220 65 157 0.0 0.0 0.00 0.00 0.00 81 1007.4
20260506200220 65 157 0.0 0.0 0.00 0.00 0.00 81 1007.6
20260506195221 65 157 0.0 0.0 0.00 0.00 0.00 82 1007.5
20260506194220 65 157 0.0 0.0 0.00 0.00 0.00 81 1007.4
20260506193222 65 157 0.0 0.0 0.00 0.00 0.00 81 1007.4
20260506192320 65 157 0.0 0.0 0.00 0.00 0.00 81 1007.6
20260506191321 66 157 0.0 0.0 0.00 0.00 0.00 80 1007.7
20260506190320 66 157 0.0 0.0 0.00 0.00 0.00 80 1007.8
20260506185321 66 157 0.0 0.0 0.00 0.00 0.00 80 1007.8
20260506184337 65 157 0.0 0.0 0.00 0.00 0.00 80 1007.8
20260506183422 64 157 0.0 0.0 0.00 0.00 0.00 81 1007.9
20260506181420 63 157 0.0 0.0 0.00 0.00 0.00 81 1008.0
20260506180421 63 157 0.0 0.0 0.00 0.00 0.00 81 1007.9
20260506175420 63 157 0.0 0.0 0.00 0.00 0.00 80 1008.1
20260506173422 63 157 0.0 0.0 0.00 0.00 0.00 82 1008.0
20260506173319 63 157 0.0 0.0 0.00 0.00 0.00 82 1008.1
20260506172322 62 157 0.0 0.0 0.00 0.00 0.00 82 1008.1
20260506171420 62 157 0.0 0.0 0.00 0.00 0.00 82 1008.0
20260506170519 62 157 0.0 0.0 0.00 0.00 0.00 83 1008.1
20260506164522 62 157 0.0 0.0 0.00 0.00 0.00 83 1008.0
20260506162521 61 157 0.0 0.0 0.00 0.00 0.00 85 1008.0
20260506161520 61 157 0.0 0.0 0.00 0.00 0.00 85 1008.1
20260506160521 61 157 0.0 0.0 0.00 0.00 0.00 85 1008.2
20260506155521 61 157 0.0 0.0 0.00 0.00 0.00 85 1008.4
20260506154522 61 157 0.0 0.0 0.00 0.00 0.00 85 1008.3
20260506153619 61 157 0.0 0.0 0.00 0.00 0.00 86 1008.0
20260506152719 61 157 0.0 0.0 0.00 0.00 0.00 87 1008.1
20260506152622 61 157 0.0 0.0 0.00 0.00 0.00 87 1008.1
20260506151620 61 157 0.0 0.0 0.00 0.00 0.00 87 1008.0
20260506150624 61 157 0.0 0.0 0.00 0.00 0.00 87 1008.0
20260506144820 60 157 0.0 0.0 0.00 0.00 0.00 86 1008.9
20260506143820 60 157 0.0 0.0 0.00 0.00 0.00 85 1009.1
20260506142821 61 157 0.0 0.0 0.00 0.00 0.00 85 1008.9
20260506140821 61 157 0.0 0.0 0.00 0.00 0.00 85 1008.7
20260506135920 61 157 0.0 0.0 0.00 0.00 0.00 85 1008.4
20260506134922 60 157 0.0 0.0 0.00 0.00 0.00 85 1008.5
20260506134019 60 157 0.0 0.0 0.00 0.00 0.00 85 1008.3
20260506133021 60 157 0.0 0.0 0.00 0.00 0.00 84 1008.5
20260506132020 60 157 0.0 0.0 0.00 0.00 0.00 83 1008.5
20260506131921 60 157 0.0 0.0 0.00 0.00 0.00 83 1008.5
20260506130920 61 157 0.0 0.0 0.00 0.00 0.00 82 1008.6
20260506125922 61 157 0.0 0.0 0.00 0.00 0.00 82 1008.6
20260506125019 61 157 0.0 0.0 0.00 0.00 0.00 81 1008.5
20260506124022 61 157 0.0 0.0 0.00 0.00 0.00 79 1008.6
20260506123020 61 157 0.0 0.0 0.00 0.00 0.00 79 1008.6
20260506115223 63 157 0.0 0.0 0.00 0.00 0.00 74 1009.1
20260506114220 63 157 0.0 0.0 0.00 0.00 0.00 73 1009.0
20260506112321 64 157 0.0 0.0 0.00 0.00 0.00 69 1008.5
20260506110321 64 157 0.0 0.0 0.00 0.00 0.00 67 1008.1
20260506105320 64 157 0.0 0.0 0.00 0.00 0.00 66 1008.1
20260506104321 64 157 0.0 0.0 0.00 0.00 0.00 65 1007.9
20260506103320 65 157 0.0 0.0 0.00 0.00 0.00 64 1007.6
20260506102321 65 157 0.0 0.0 0.00 0.00 0.00 62 1007.5
20260506101419 65 157 0.0 0.0 0.00 0.00 0.00 62 1007.6
20260506100423 65 157 0.0 0.0 0.00 0.00 0.00 61 1007.8
20260506095422 65 157 0.0 0.0 0.00 0.00 0.00 61 1007.6
20260506094519 65 157 0.0 0.0 0.00 0.00 0.00 61 1007.5
20260506092619 65 157 0.0 0.0 0.00 0.00 0.00 60 1007.5
20260506091620 66 157 0.0 0.0 0.00 0.00 0.00 59 1007.7
20260506090620 66 157 0.0 0.0 0.00 0.00 0.00 59 1007.7
20260506085622 66 157 0.0 0.0 0.00 0.00 0.00 59 1008.0
20260506083622 66 157 0.0 0.0 0.00 0.00 0.00 58 1008.1
20260506082620 66 157 0.0 0.0 0.00 0.00 0.00 58 1007.8
20260506081623 66 157 0.0 0.0 0.00 0.00 0.00 57 1007.9
20260506080619 66 157 0.0 0.0 0.00 0.00 0.00 57 1008.0
20260506071720 67 157 0.0 0.0 0.00 0.00 0.00 54 1008.3
20260506070721 67 157 0.0 0.0 0.00 0.00 0.00 54 1008.3
20260506061919 68 157 0.0 0.0 0.00 0.00 0.00 53 1008.7